Content
SEND FEEDBACK

Daily
Averages
Monthly
Summary
United States of America

CRYSTAL LAKE, FLORIDA


Home > North America > United States > Florida
Elevation: 144 feet     Latitude: 28 01N     Longitude: 081 55W

WEATHER
 
SELECT A DAY
Number of Records: 134,602;   Date Range: 1/1/95 - 7/29/14
 
SHARE

PRINT THIS DATA

[ ← Previous Day ]
WEATHER ALMANAC - FEBRUARY 13, 2013
[ Next Day → ]
[ °C ]   °F
Weather ElementAverageHighLow
Temperature70.3 °F84.2 °F (1:50 pm)62.6 °F (8:55 pm)
Dewpoint62.1 °F69.8 °F (8:50 am) (7:00 pm)
Humidity81.9 %100 % (1:35 am)48 % (1:50 pm)
Barometer29.95 in30.00 in (11:15 pm)29.88 in (2:50 pm)
Wind Speed8.9 mph20.7 mph (11:50 am)
Wind Gust29.9 mph (11:50 am)
Weather ElementAverage
Visibility8.5 mi
Wind DirectionSSW (206.7 °)

Weather ElementTotal
Precipitation---
Cooling Degree Days8.4 (Base 65)
Growing Degree Days23.4 (Base 50)
Averaged from 39 records on February 13, 2013
WEATHER CONDITIONS BREAKOUT
WIND DIRECTION BREAKOUT
WEATHER BY HOUR - FEBRUARY 13, 2013
[ °C ]   °F
Local TimeTemperatureDewpointHumidityBarometerVisibilityWind DirectionWind SpeedGust SpeedPrecipitationEventsConditions
12:35 AM69.8 °F68.0 °F94 %29.98 in7.0 miSSW (210°)10.4 mphOvercast
12:55 AM69.8 °F68.0 °F94 %29.98 in7.0 miSSW (210°)9.2 mphOvercast
1:15 AM69.8 °F68.0 °F94 %29.98 in7.0 miSSW (210°)8.1 mphOvercast
1:35 AM68.0 °F68.0 °F100 %29.98 in7.0 miSSW (200°)8.1 mphOvercast
1:55 AM68.0 °F68.0 °F100 %29.97 in7.0 miSSW (200°)8.1 mphOvercast
2:15 AM68.0 °F66.2 °F94 %29.97 in7.0 miSSW (200°)9.2 mphOvercast
2:35 AM68.0 °F66.2 °F94 %29.96 in7.0 miSSW (200°)6.9 mphOvercast
2:55 AM68.0 °F66.2 °F94 %29.95 in7.0 miSouth (190°)8.1 mphOvercast
3:15 AM68.0 °F66.2 °F94 %29.95 in7.0 miSSW (200°)8.1 mphOvercast
3:35 AM68.0 °F66.2 °F94 %29.95 in7.0 miSSW (200°)8.1 mphOvercast
3:55 AM68.0 °F66.2 °F94 %29.95 in7.0 miSSW (200°)8.1 mphOvercast
4:15 AM68.0 °F66.2 °F94 %29.94 in7.0 miSSW (200°)9.2 mphOvercast
4:35 AM68.0 °F66.2 °F94 %29.94 in7.0 miSSW (200°)9.2 mphMostly Cloudy
4:55 AM68.0 °F66.2 °F94 %29.94 in7.0 miSSW (200°)9.2 mphOvercast
5:15 AM68.0 °F66.2 °F94 %29.94 in7.0 miSSW (210°)8.1 mphOvercast
5:35 AM68.0 °F66.2 °F94 %29.94 in7.0 miSSW (200°)9.2 mphOvercast
5:50 AM69.8 °F66.2 °F88 %29.94 in7.0 miSSW (200°)9.2 mphOvercast
6:50 AM69.8 °F66.2 °F88 %29.95 in7.0 miSSW (200°)8.1 mphOvercast
7:50 AM69.8 °F68.0 °F94 %29.97 in7.0 miSouth (190°)9.2 mphOvercast
8:50 AM71.6 °F69.8 °F94 %29.97 in7.0 miSouth (190°)9.2 mphMostly Cloudy
9:50 AM75.2 °F68.0 °F78 %29.98 in8.0 miSW (220°)12.7 mph18.4 mphMostly Cloudy
10:50 AM78.8 °F0.0 °F29.97 in10.0 miSW (230°)11.5 mph17.3 mphMostly Cloudy
11:50 AM82.4 °F64.4 °F54 %29.93 in10.0 miSSW (210°)20.7 mph29.9 mphMostly Cloudy
12:50 PM82.4 °F64.4 °F54 %29.92 in10.0 miWSW (240°)18.4 mph27.6 mphMostly Cloudy
1:50 PM84.2 °F62.6 °F48 %29.89 in10.0 miWSW (240°)17.3 mph25.3 mphMostly Cloudy
2:50 PM82.4 °F62.6 °F51 %29.88 in10.0 miWSW (250°)19.6 mph25.3 mphMostly Cloudy
3:50 PM82.4 °F64.4 °F54 %29.88 in10.0 miWSW (240°)11.5 mph26.5 mphMostly Cloudy
4:50 PM80.6 °F66.2 °F61 %29.88 in10.0 miWSW (240°)11.5 mph18.4 mphMostly Cloudy
5:50 PM78.8 °F66.2 °F65 %29.88 in10.0 miSW (230°)16.1 mph23.0 mphMostly Cloudy
7:50 PM77.0 °F68.0 °F74 %29.89 in10.0 miSW (230°)12.7 mphOvercast
8:55 PM62.6 °F55.4 °F77 %29.96 in12.0 miNorth (350°)6.9 mphMostly Cloudy
9:51 PM62.6 °F55.4 °F77 %29.98 in12.0 miNorth (360°)3.5 mphOvercast
9:55 PM62.6 °F55.4 °F77 %29.98 in10.0 miNorth (350°)3.5 mphOvercast
10:15 PM62.6 °F55.4 °F77 %29.98 in10.0 miNorth (360°)4.6 mphOvercast
10:35 PM62.6 °F55.4 °F77 %29.99 in10.0 miCalmOvercast
10:55 PM62.6 °F55.4 °F77 %29.99 in10.0 miCalmOvercast
11:15 PM62.6 °F55.4 °F77 %30.00 in10.0 miCalmOvercast
11:35 PM62.6 °F55.4 °F77 %30.00 in10.0 miWNW (300°)3.5 mphOvercast
11:55 PM62.6 °F55.4 °F77 %30.00 in10.0 miCalmOvercast
Hourly data recorded from KLAL, located miles away from Crystal Lake, Florida







STORIES FROM OUR PARTNERS